CAPE
135 107 113 135 46 98 189 268 397 527 309 383 314 440 492 567 349 652 883 815 882 1047 1006 764 497 1098 1101 1701 1667 1325 1141 1238 724 834 635 622 465 546 558 619 777 937 1056
124 113 98 91 39 131 181 190 257 316 315 272 322 373 404 527 545 800 917 914 919 1028 690 563 496 864 876 1435 1591 1477 1178 1113 836 1097 365 315 362 403 630 728 792 820 890
60 97 105 36 34 89 84 62 206 256 243 243 235 363 507 535 550 702 861 997 993 948 917 784 672 638 651 1043 1306 1493 1194 1230 1064 955 851 614 522 488 459 459 528 633 709
55 94 114 56 29 6 20 33 153 191 237 219 205 374 430 457 425 511 599 755 919 950 886 817 593 394 356 863 1050 1260 1294 854 1056 658 625 525 659 717 500 415 468 520 522
33 101 133 105 49 34 0 0 72 127 167 236 205 240 296 348 385 408 495 641 702 616 974 898 549 522 285 736 1096 1174 1382 1149 500 443 388 408 381 362 449 535 376 383 430
44 99 127 129 94 57 5 0 33 131 178 203 191 205 217 233 283 342 311 415 438 548 825 980 448 674 439 452 890 1068 1133 1086 562 462 443 375 208 260 364 360 242 210 411
34 51 82 87 71 91 103 29 44 117 206 224 213 204 183 201 232 246 280 324 312 366 497 869 831 784 534 361 281 738 805 944 1116 734 506 518 205 301 448 491 394 368 381
24 16 30 79 68 99 141 122 49 110 248 247 195 173 196 204 194 177 223 265 262 302 265 537 828 849 602 285 49 687 563 713 747 472 793 788 501 419 406 392 348 662 408
13 8 36 76 79 116 139 165 133 78 176 252 217 183 258 251 161 168 310 204 158 328 267 267 544 783 564 548 604 738 393 431 419 333 351 851 780 474 343 301 170 695 694
21 30 58 47 71 111 151 153 155 110 114 190 165 173 292 257 282 329 315 181 234 284 336 282 272 579 575 480 572 687 734 563 451 451 291 555 567 600 568 569 459 406 471
35 33 34 35 59 92 122 171 178 144 124 165 169 219 337 205 398 335 413 413 325 232 170 144 139 309 296 370 432 578 651 550 429 342 371 592 379 398 480 569 504 364 328
16 35 45 70 64 132 118 139 177 182 165 210 213 344 278 297 402 433 456 300 225 195 168 101 168 302 172 476 534 493 675 634 567 415 311 365 448 542 498 367 615 424 217
25 39 66 72 117 166 229 233 213 219 276 241 354 464 339 533 503 563 399 289 229 233 200 102 12 96 495 573 596 542 479 732 706 754 577 638 518 626 560 556 387 325 322
50 99 136 144 122 159 255 272 243 299 343 363 367 376 490 444 305 81 75 97 151 190 198 250 338 408 575 547 538 426 294 314 470 616 658 663 844 768 624 442 377 300 370
96 120 168 163 103 159 241 283 329 319 333 372 406 353 195 200 172 146 70 98 115 121 109 196 247 355 453 344 304 238 116 148 224 367 625 464 362 318 173 336 264 246 408
119 117 89 155 179 236 234 212 121 74 145 286 320 193 148 109 155 186 146 96 116 117 72 85 103 137 137 168 205 186 72 0 61 308 402 290 180 131 105 109 135 162 221
158 167 156 178 139 161 168 114 93 124 113 100 126 135 157 125 126 131 131 110 87 73 78 38 13 66 85 70 13 4 7 11 53 172 220 133 107 122 60 71 82 106 124
143 153 158 181 164 172 255 207 131 90 88 98 108 108 125 95 99 138 126 98 81 54 66 56 66 59 40 27 22 13 3 5 13 80 75 97 104 82 70 59 93 129 120
374 236 153 230 252 201 177 137 153 117 102 88 123 132 117 102 118 125 96 151 146 143 131 80 52 44 36 32 31 23 19 18 27 79 86 73 70 47 56 64 64 52 24
113 219 289 220 263 235 135 57 108 146 71 138 181 211 172 140 101 108 133 148 147 130 110 85 55 41 26 0 0 0 1 44 55 68 71 68 34 28 52 34 30 31 19
132 215 223 335 226 281 332 144 134 81 68 40 10 24 145 190 158 146 127 85 153 160 141 100 145 73 54 23 3 0 0 0 0 0 4 9 7 0 0 0 8 23 17
145 141 218 213 148 220 380 351 220 172 251 211 93 33 18 18 163 219 264 168 86 143 113 87 120 34 36 16 0 0 0 0 0 2 5 0 0 0 0 1 5 11 33
38 60 76 136 142 167 165 304 332 368 216 118 95 61 18 153 258 318 244 164 185 209 163 124 89 53 18 6 0 0 0 0 1 3 17 27 13 13 9 42 34 26 20
23 17 6 19 143 59 75 98 165 306 246 233 206 151 171 215 286 291 222 303 197 186 143 82 86 61 21 10 31 14 14 17 25 34 34 46 53 45 47 43 13 9 3
0 0 0 10 1 4 8 7 10 5 0 0 11 155 108 137 269 209 182 154 140 106 136 70 73 140 36 2 1 7 16 10 11 12 28 62 47 44 32 24 14 5 8
0 0 0 0 0 0 0 0 0 0 0 0 0 0 0 7 12 18 7 2 1 19 67 0 0 0 1 4 1 0 0 0 0 0 0 0 1 0 0 0 0 0 0
CIN
-40 -90 -77 -59 -71 -67 -58 -30 -24 -19 -72 -31 -48 -38 -31 -37 -67 -13 -42 -28 -37 -85 -33 -40 -23 -49 -35 -36 -130 -101 -47 -64 -41 -46 -45 -50 -54 -65 -68 -55 -30 -25 -23
-39 -45 -83 -66 -123 -80 -41 -24 -40 -60 -36 -45 -42 -34 -52 -47 -45 -27 -46 -31 -49 -46 -89 -40 -53 -40 -40 -29 -51 -179 -159 -92 -83 -189 -66 -44 -44 -68 -54 -43 -39 -38 -37
-142 -123 -95 -87 -112 -89 -66 -52 -35 -54 -44 -29 -30 -56 -72 -43 -50 -43 -30 -39 -48 -53 -74 -33 -59 -66 -35 -27 -46 -170 -180 -168 -55 -53 -183 -125 -88 -75 -280 -176 -69 -50 -259
-155 -138 -131 -116 -71 -51 -89 -70 -36 -24 -37 -76 -77 -60 -42 -35 -38 -41 -44 -37 -21 -36 -25 -17 -21 -35 -36 -35 -58 -83 -179 -186 -162 -43 -35 -41 -113 -37 -89 -173 -87 -67 -88
-152 -164 -166 -139 -93 -39 0 0 -64 -29 -24 -43 -48 -52 -39 -29 -39 -21 -40 -31 -18 -44 -109 -26 -64 -30 -121 -53 -49 -152 -160 -185 -113 -241 -284 -59 -35 -28 -233 -146 -86 -66 -56
-6 -178 -187 -126 -92 -9 -13 0 -77 -45 -79 -42 -34 -41 -46 -48 -41 -39 -53 -33 -31 -18 -38 -40 -18 -31 -59 -47 -45 -53 -117 -157 -45 -49 -55 -65 -139 -257 -243 -227 -78 -142 -354
-18 -153 -127 -117 -82 -123 -139 -52 -129 -55 -70 -37 -26 -20 -44 -40 -37 -60 -50 -37 -37 -38 -26 -25 -30 -19 -39 -44 -34 -36 -53 -63 -129 -52 -62 -49 -29 -42 -65 -208 -140 -60 -55
-26 -145 -144 -133 -123 -31 -155 -112 -130 -106 -70 -40 -36 -31 -29 -27 -29 -33 -85 -56 -70 -35 -29 -25 -34 -24 -17 -44 -161 -43 -54 -116 -52 -173 -68 -110 -41 -50 -101 -189 -126 -96 -167
-30 -20 -48 -108 -73 -188 -169 -143 -122 -108 -88 -68 -50 -54 -30 -25 -58 -60 -27 -64 -155 -69 -66 -44 -113 -20 -23 -38 -33 -28 -39 -56 -40 -41 -57 -124 -89 -47 -68 -69 -175 -104 -65
-18 -17 -13 -73 -37 -190 -205 -174 -141 -112 -109 -84 -77 -62 -39 -33 -43 -23 -35 -33 -40 -52 -43 -31 -55 -36 -29 -32 -73 -86 -16 -18 -21 -20 -43 -32 -66 -70 -29 -32 -36 -39 -63
-146 -24 -12 -38 -34 -23 -213 -204 -166 -150 -113 -123 -94 -58 -17 -32 -20 -34 -45 -35 -39 -43 -105 -70 -93 -43 -30 -23 -64 -20 -18 -13 -15 -78 -75 -89 -54 -38 -82 -37 -32 -25 -40
-97 -101 -47 -95 -42 -255 -255 -201 -181 -162 -222 -198 -117 -54 -33 -49 -21 -22 -14 -40 -55 -45 -47 -56 -95 -49 -41 -85 -61 -37 -76 -77 -35 -13 -94 -89 -63 -27 -25 -30 -75 -81 -94
-66 -138 -150 -170 -198 -203 -191 -211 -227 -235 -205 -189 -90 -27 -72 -29 -38 -20 -16 -21 -25 -15 -32 -48 -27 -96 -87 -73 -28 -35 -23 -67 -68 -59 -21 -71 -81 -72 -62 -12 -30 -15 -39
-104 -88 -136 -161 -172 -140 -152 -167 -154 -172 -143 -111 -73 -68 -42 -32 -22 -155 -156 -103 -51 -36 -16 -22 -26 -39 -27 -26 -25 -33 -40 -50 -86 -46 -64 -65 -61 -76 -42 -41 -50 -53 -38
-94 -44 -60 -121 -95 -77 -129 -120 -97 -89 -72 -60 -71 -50 -46 -93 -89 -66 -111 -67 -50 -33 -36 -69 -74 -59 -35 -23 -24 -22 -40 -36 -85 -65 -68 -58 -35 -46 -55 -89 -85 -87 -59
-40 -62 -20 -65 -62 -123 -105 -82 -56 -130 -119 -63 -51 -16 -75 -109 -70 -54 -40 -34 -37 -21 -25 -13 -60 -56 -59 -31 -27 -15 -20 -1 -101 -68 -49 -33 -34 -39 -68 -67 -107 -103 -106
-127 -99 -71 -111 -92 -55 -63 -35 -100 -76 -54 -42 -41 -48 -57 -36 -90 -54 -28 -16 -19 -3 0 -1 -9 -55 -10 -3 -24 -40 -47 -61 -50 -61 -47 -35 -41 -25 -48 -53 -84 -67 -47
-107 -102 -115 -117 -83 -88 -64 -53 -27 -30 -22 -40 -50 -40 -34 -40 -45 -9 -18 -10 -6 -5 -11 -29 -55 -46 -43 -13 -8 -11 -7 -13 -85 -56 -90 -46 -28 -30 -21 -26 -108 -93 -64
-74 -93 -81 -67 -68 -87 -75 -55 -29 -6 -2 -10 -18 -16 -17 -35 -16 -16 -2 -4 -21 -18 -14 -25 -46 -43 -56 -41 -14 -6 -8 -8 -3 -27 -38 -54 -52 -38 -29 -32 -41 -61 -64
-160 -122 -79 -82 -96 -89 -60 -75 -67 -13 -27 -2 0 0 -7 -42 -24 -3 0 -9 -34 -23 -32 -36 -39 -56 -54 0 0 0 -11 -52 -38 -33 -30 -42 -36 -29 -18 -26 -44 -51 -55
-239 -164 -97 -54 -69 -55 -53 -47 -44 -19 -26 -22 -37 -7 -6 -12 0 0 -3 -11 -20 -23 -25 -49 -25 -43 -46 -57 -25 0 0 0 0 0 -44 -50 -25 0 0 0 -55 -43 -39
-185 -175 -86 -56 -69 -59 -26 -18 -16 -8 -1 -1 -17 -13 -47 0 0 0 0 -12 -38 -22 -27 -18 -22 -60 -55 -59 0 0 0 0 0 -34 -35 0 0 0 0 -4 -4 -8 -13
-170 -194 -157 -81 -51 -57 -73 -38 -12 0 0 -2 -3 -6 -2 -1 -2 -1 -1 -11 -5 -12 -20 -20 -18 -17 -18 0 0 0 0 0 -43 -41 -30 -37 -41 -16 -6 -1 0 -7 -6
-180 -172 -145 -172 -68 -101 -77 -72 -44 -12 -10 0 -1 -14 -3 0 0 0 -6 0 -7 -20 -25 -25 -13 -17 -3 0 -12 -1 -12 -30 -18 -11 -18 -12 -19 -10 0 0 -3 -5 -5
0 0 -34 -102 -89 -149 -119 -46 -48 -48 -1 0 -6 -7 -7 -3 -1 -1 0 -2 -3 -22 -14 -20 -24 -5 -18 -1 -2 -1 0 -2 -6 -11 -7 -1 -2 -6 -2 -1 -2 -8 -9
0 0 0 0 0 0 0 0 0 0 0 0 0 0 0 -19 -13 -5 -5 0 -1 -5 -8 0 0 0 0 -10 -3 0 0 0 0 0 0 0 -8 0 -5 0 0 0 0
Wind_Speed
3 4 2 4 nan nan 5 7 5 6 8 13 14 13 15 16 18 18 17 16 20 19 16 15 16 18 17 18 16 12 12 11 7 5 4 3 1 3 4 6 6 6 7
10 6 nan nan nan 7 7 7 6 5 6 8 11 11 11 12 15 14 15 15 16 16 14 14 12 12 11 13 15 14 9 6 8 5 4 2 2 2 6 6 5 5 5
nan nan 5 nan nan nan nan nan 4 4 7 5 7 10 12 12 11 12 14 12 12 13 11 10 10 11 10 10 10 10 9 7 9 9 7 5 5 3 4 8 8 7 9
nan nan 6 nan nan nan nan nan 6 4 6 6 6 2 4 5 9 9 10 11 12 10 9 9 8 8 8 7 10 9 9 9 9 10 11 9 6 9 7 8 8 9 9
nan 8 3 3 nan nan nan nan nan 5 5 5 5 6 6 9 9 9 10 10 13 11 10 7 7 9 9 8 7 6 9 10 10 9 7 8 7 7 9 9 10 9 11
nan nan 9 13 nan nan nan nan nan 9 6 2 4 4 4 4 7 8 7 8 10 11 12 8 6 5 7 8 8 8 9 10 9 8 11 12 9 6 9 10 11 9 10
nan nan nan nan nan nan 6 nan nan 5 8 7 5 6 6 4 4 5 7 7 9 9 8 9 6 7 7 6 8 9 8 7 6 9 10 13 14 10 10 10 12 10 10
nan nan nan nan nan nan 8 7 nan 5 6 7 8 9 8 9 8 7 7 7 7 7 8 8 9 8 9 11 nan 9 7 7 6 8 9 11 15 14 13 10 11 10 9
nan nan nan nan nan 12 10 8 9 nan 11 9 10 10 11 9 7 6 9 8 9 7 5 6 7 7 8 9 10 9 10 11 10 9 10 11 14 15 13 11 10 11 9
nan nan nan nan nan 15 15 15 13 10 11 13 14 13 11 10 11 11 10 9 10 10 7 5 7 9 8 7 9 8 8 8 7 8 9 8 11 13 14 14 13 12 15
nan nan nan nan nan nan 23 18 19 17 18 16 17 18 17 16 15 14 13 13 13 10 9 8 7 10 8 7 11 10 8 8 8 9 9 7 10 11 13 15 16 16 16
nan nan nan nan nan 25 28 22 22 21 21 21 20 21 22 21 21 20 23 17 14 14 11 12 12 11 9 11 10 9 10 9 8 9 12 9 11 11 12 14 15 17 17
nan nan nan nan 36 28 27 24 24 25 27 24 24 25 24 27 29 28 28 24 18 16 15 13 nan nan 13 13 14 13 12 10 8 8 10 11 15 15 16 14 14 16 16
nan nan 31 38 29 21 27 26 24 24 27 27 25 27 27 31 31 nan nan nan 21 17 16 15 14 16 18 19 20 19 19 16 13 12 13 14 16 20 20 17 16 15 16
nan 10 23 37 34 35 33 31 28 24 25 24 25 26 30 35 33 33 nan nan 21 19 17 16 16 20 21 22 20 20 18 18 18 19 18 20 24 28 23 18 18 20 19
11 4 nan 34 34 35 29 27 30 nan 32 32 30 33 36 35 27 30 27 nan 20 21 nan nan 23 20 21 19 17 19 nan nan nan 19 23 24 24 21 29 27 20 16 18
15 13 12 10 13 20 30 34 nan 35 36 31 38 41 39 28 24 18 27 26 nan nan nan nan nan nan nan nan nan nan nan nan nan 26 27 28 25 32 nan nan nan 39 34
20 15 15 13 17 8 22 30 43 nan nan nan 33 33 35 nan nan 30 33 nan nan nan nan nan nan nan nan nan nan nan nan nan nan nan nan nan 29 nan nan nan nan 40 36
23 22 22 15 13 17 17 20 26 39 40 nan 31 36 37 37 36 25 nan 21 26 31 32 nan nan nan nan nan nan nan nan nan nan nan nan nan nan nan nan nan nan nan nan
30 28 27 24 26 26 18 nan 23 21 nan 35 40 34 36 30 32 28 29 24 30 31 27 nan nan nan nan nan nan nan nan nan nan nan nan nan nan nan nan nan nan nan nan
34 31 31 29 28 30 31 31 32 nan nan nan nan nan 45 40 27 29 24 nan 32 34 36 34 31 nan nan nan nan nan nan nan nan nan nan nan nan nan nan nan nan nan nan
33 33 33 31 26 30 34 35 37 33 39 39 nan nan nan nan 31 35 34 35 nan 24 24 nan 27 nan nan nan nan nan nan nan nan nan nan nan nan nan nan nan nan nan nan
nan nan nan 37 36 31 35 34 29 30 31 32 nan nan nan 34 23 23 25 29 28 31 31 32 nan nan nan nan nan nan nan nan nan nan nan nan nan nan nan nan nan nan nan
nan nan nan nan 32 nan nan nan 35 34 30 32 35 36 36 37 32 28 31 33 34 39 42 nan nan nan nan nan nan nan nan nan nan nan nan nan nan nan nan nan nan nan nan
nan nan nan nan nan nan nan nan nan nan nan nan nan 40 40 42 41 42 40 44 45 44 46 nan nan 46 nan nan nan nan nan nan nan nan nan nan nan nan nan nan nan nan nan
nan nan nan nan nan nan nan nan nan nan nan nan nan nan nan nan nan nan nan nan nan nan nan nan nan nan nan nan nan nan nan nan nan nan nan nan nan nan nan nan nan nan nan
Wind_Direction
231 238 218 176 nan nan 131 113 126 129 123 134 126 119 104 103 102 107 100 93 95 108 118 126 133 141 144 143 144 153 157 162 175 196 210 255 349 23 28 35 47 54 45
239 208 nan nan nan 130 123 129 147 121 119 127 131 133 122 113 114 110 104 103 93 106 114 115 120 123 146 146 161 163 160 160 196 244 255 237 53 2 308 317 7 6 358
nan nan 211 nan nan nan nan nan 130 118 127 143 154 161 161 157 136 125 123 119 105 102 107 111 121 126 138 157 169 172 172 178 205 221 260 273 324 309 299 283 289 298 320
nan nan 191 nan nan nan nan nan 113 128 155 158 175 194 156 153 134 140 143 135 132 122 118 137 144 138 146 176 179 178 197 208 219 230 234 247 282 294 277 279 280 272 284
nan 257 198 192 nan nan nan nan nan 151 156 162 180 197 196 186 182 171 158 149 144 146 140 149 157 148 163 174 183 205 225 226 234 246 254 253 245 257 286 280 257 272 295
nan nan 208 202 nan nan nan nan nan 156 156 211 189 195 193 206 207 199 193 167 157 150 152 153 159 158 176 178 184 198 223 239 250 261 278 283 286 281 269 276 284 283 273
nan nan nan nan nan nan 217 nan nan 184 166 187 217 194 185 203 207 213 213 217 193 179 165 171 191 188 192 198 198 206 217 231 249 267 268 276 289 291 276 278 268 276 284
nan nan nan nan nan nan 224 232 nan 210 210 206 190 195 204 214 215 216 213 212 222 191 191 198 211 218 212 208 nan 234 247 265 257 271 282 285 291 303 292 290 280 267 276
nan nan nan nan nan 200 220 232 248 nan 232 232 230 214 218 231 221 213 217 214 235 237 221 218 237 239 237 245 250 245 250 258 258 259 257 262 281 297 302 298 300 299 288
nan nan nan nan nan 209 222 221 231 245 241 245 245 244 240 234 236 238 235 229 234 254 256 249 249 257 249 258 259 248 255 266 266 271 285 278 273 282 288 291 291 292 295
nan nan nan nan nan nan 225 220 229 240 239 236 241 249 250 245 243 239 234 241 239 244 257 262 269 258 246 248 247 249 258 277 269 275 291 297 284 280 283 286 292 294 296
nan nan nan nan nan 235 226 222 229 233 240 247 248 253 251 256 253 245 236 234 236 239 234 251 269 272 265 276 261 273 282 285 281 291 296 303 285 285 280 288 296 296 297
nan nan nan nan 241 231 231 222 231 241 246 246 252 250 252 254 250 241 236 228 231 234 237 238 nan nan 269 277 274 278 278 276 279 275 288 293 299 292 284 283 283 282 286
nan nan 236 228 232 229 236 234 231 244 249 253 258 256 250 251 250 nan nan nan 227 232 233 249 248 255 260 263 263 269 274 283 277 279 284 291 296 289 285 279 272 275 277
nan 227 230 214 241 229 237 241 236 233 234 235 264 260 254 258 248 245 nan nan 224 225 232 246 252 258 260 262 258 262 272 281 282 281 278 280 278 273 280 267 265 272 279
354 6 nan 223 221 231 233 235 229 nan 244 246 253 249 256 264 246 248 238 nan 220 217 nan nan 249 253 250 249 244 257 nan nan nan 284 284 278 268 275 270 266 262 268 274
239 246 252 243 237 253 230 233 nan 232 248 253 250 251 249 257 250 256 226 220 nan nan nan nan nan nan nan nan nan nan nan nan nan 274 280 273 267 258 nan nan nan 264 263
240 231 250 255 250 264 230 257 247 nan nan nan 255 235 241 nan nan 261 230 nan nan nan nan nan nan nan nan nan nan nan nan nan nan nan nan nan 269 nan nan nan nan 272 263
232 235 237 239 249 242 251 263 247 244 241 nan 241 242 241 248 262 239 nan 238 246 247 247 nan nan nan nan nan nan nan nan nan nan nan nan nan nan nan nan nan nan nan nan
244 248 242 240 233 240 242 nan 275 263 nan 236 236 245 236 249 239 236 228 227 239 246 253 nan nan nan nan nan nan nan nan nan nan nan nan nan nan nan nan nan nan nan nan
251 249 249 243 237 237 244 246 259 nan nan nan nan nan 235 240 255 227 224 nan 238 236 243 245 246 nan nan nan nan nan nan nan nan nan nan nan nan nan nan nan nan nan nan
267 261 255 254 248 249 247 248 248 244 249 266 nan nan nan nan 226 233 235 240 nan 255 246 nan 246 nan nan nan nan nan nan nan nan nan nan nan nan nan nan nan nan nan nan
nan nan nan 255 248 247 245 244 242 246 248 251 nan nan nan 203 229 236 250 263 274 281 279 276 nan nan nan nan nan nan nan nan nan nan nan nan nan nan nan nan nan nan nan
nan nan nan nan 246 nan nan nan 245 247 247 250 253 259 267 269 276 271 265 261 261 267 271 nan nan nan nan nan nan nan nan nan nan nan nan nan nan nan nan nan nan nan nan
nan nan nan nan nan nan nan nan nan nan nan nan nan 254 257 264 262 258 256 261 262 262 269 nan nan 275 nan nan nan nan nan nan nan nan nan nan nan nan nan nan nan nan nan
nan nan nan nan nan nan nan nan nan nan nan nan nan nan nan nan nan nan nan nan nan nan nan nan nan nan nan nan nan nan nan nan nan nan nan nan nan nan nan nan nan nan nan